Location: Brede
(50.9167°N, 0.6000°E)
Time: 16:14:47
(UTC+00:00)

A-11 Canister half - Visible Passes

Search period start: 26 November 2020 00:00
Search period end: 06 December 2020 00:00
Orbit: 1525 x 1684 km, 47.3° (Epoch: 26 November)

Date Brightness Start Highest point End Pass type
(mag) Time Alt. Az. Time Alt. Az. Time Alt. Az.
26 Nov 11.6 03:59:05 10° SE 04:00:26 10° ESE 04:01:47 10° ESE visible
26 Nov 10.6 05:54:19 10° SSW 06:03:08 36° SE 06:11:47 10° E visible
27 Nov 10.6 05:32:49 10° SSW 05:41:32 34° SE 05:50:06 10° E visible
28 Nov 10.6 05:11:19 10° SSW 05:19:55 33° SE 05:28:24 10° E visible
29 Nov 10.6 04:49:50 10° SSW 04:58:19 32° SE 05:06:41 10° E visible
29 Nov 9.7 06:52:17 10° WSW 07:02:12 62° SSE 07:11:53 10° E visible
30 Nov 10.5 04:28:22 10° SSW 04:36:43 31° SE 04:44:59 10° E visible
30 Nov 9.7 06:30:40 10° SW 06:40:33 61° SSE 06:50:14 10° E visible
01 Dec 10.5 04:06:54 10° S 04:15:07 29° SE 04:23:16 10° E visible
01 Dec 9.7 06:09:01 10° SW 06:18:54 60° SSE 06:28:34 10° E visible
02 Dec 10.5 03:46:20 13° S 03:53:31 28° SE 04:01:33 10° E visible
02 Dec 9.7 05:47:23 10° SW 05:57:15 58° SSE 06:06:55 10° E visible
03 Dec 10.5 03:26:52 18° S 03:31:57 27° SE 03:39:48 10° E visible
03 Dec 9.6 05:25:46 10° SW 05:35:36 57° SSE 05:45:16 10° E visible
04 Dec 10.5 03:07:12 22° SSE 03:10:21 26° SE 03:18:03 10° E visible
04 Dec 9.6 05:05:34 15° SW 05:13:57 56° SSE 05:23:36 10° E visible
05 Dec 10.5 02:47:24 24° SE 02:48:46 25° SE 02:56:16 10° E visible
05 Dec 9.6 04:45:44 23° SW 04:52:18 54° SSE 05:01:56 10° E visible
05 Dec 9.4 06:46:47 10° W 06:56:54 73° S 07:06:46 10° E visible
